{"data":{"norad_id":63646,"epoch":"2026-05-25T02:19:35.812128Z","epoch_age_seconds":76723,"freshness":"FRESH","line1":"1 63646U 25083N   26145.09694227  .00015860  00000+0  58454-3 0  9998","line2":"2 63646  42.9979 293.5847 0001120 280.8726  79.2000 15.27584325 61784","mean_motion":15.27584325,"eccentricity":0.000112,"inclination_deg":42.9979,"raan_deg":293.5847,"arg_perigee_deg":280.8726,"mean_anomaly_deg":79.2,"bstar":0.00058454,"rev_number":6178,"period_min":94.266481819261,"perigee_km":482.267694072,"apogee_km":483.80459685659,"semimajor_km":6861.1731454643,"source":"CELESTRAK","updated_at":"2026-05-25T13:38:20.054549Z"}}